Wind_Speed
9 8 7 7 6 6 5 6 8 8 7 6 5 5 5 3 3 2 1 1 1 1 1 1 1 1 2 2 2 3 3 2 3 3 2 3 2 2 1 2 3 4 5 6 8 10 12 14 15
8 7 6 6 6 6 7 8 8 7 7 7 6 6 5 4 3 3 2 2 3 2 3 3 2 2 2 1 1 1 0 0 1 1 1 2 2 2 2 2 2 3 4 5 6 8 9 11 13
6 4 5 7 6 7 7 7 7 8 8 8 7 7 6 5 4 4 4 4 4 4 4 5 5 5 5 4 4 3 3 2 2 2 2 2 2 2 2 2 2 3 3 4 5 6 7 8 9
4 4 5 6 7 7 7 8 8 8 7 7 7 7 6 5 4 5 5 5 5 6 6 6 7 7 8 8 7 7 6 5 5 4 4 4 3 3 2 2 2 3 3 4 4 5 6 6 7
3 4 6 6 7 8 7 7 7 7 7 8 7 7 6 6 5 5 6 6 6 7 7 8 8 9 10 10 11 10 10 9 8 7 7 6 5 5 4 3 3 3 3 3 3 4 4 5 5
3 5 7 7 6 6 7 8 7 6 8 9 10 9 8 7 6 6 6 7 8 8 9 10 10 11 12 12 13 13 13 13 12 11 10 9 8 7 6 5 4 4 3 3 3 3 3 4 4
4 6 8 8 8 7 8 9 10 10 10 11 12 12 11 10 10 9 8 9 10 10 11 12 13 13 14 15 15 16 16 16 15 14 14 13 12 11 10 8 7 6 4 3 3 3 3 3 3
7 8 9 10 10 10 10 12 13 14 14 14 14 14 14 15 14 14 13 13 13 13 14 15 16 16 17 17 17 18 19 19 18 18 17 16 15 14 13 12 10 9 7 6 4 4 3 3 3
9 9 10 11 12 12 13 15 16 18 18 19 18 18 18 18 18 18 18 18 18 17 17 18 18 18 18 18 19 20 20 21 21 21 20 19 18 17 16 16 14 13 11 9 8 6 5 4 4
10 10 11 12 14 15 16 17 18 20 21 22 23 23 22 23 23 23 23 23 23 23 23 23 22 22 22 22 22 22 22 22 23 23 23 22 21 20 20 19 18 17 15 13 11 10 8 6 5
12 12 13 14 16 18 19 20 21 23 24 25 26 27 27 27 27 28 28 29 29 30 30 30 29 28 27 26 26 25 25 24 25 26 26 26 25 25 24 23 22 22 20 18 16 14 12 10 8
14 15 15 17 18 20 22 23 24 25 26 27 27 28 29 29 31 31 32 33 34 35 35 35 34 34 33 32 31 29 29 29 28 28 28 28 28 28 28 28 27 26 24 22 20 18 16 14 12
16 17 18 19 22 23 24 25 25 26 27 28 30 30 31 32 33 34 35 35 36 37 37 38 37 37 37 37 36 35 34 33 32 32 31 30 30 30 31 29 31 30 29 26 24 22 20 18 16
18 19 20 22 23 23 24 24 26 27 29 30 32 33 33 33 34 35 36 37 38 38 39 39 40 40 40 40 39 38 38 37 36 35 34 34 33 32 30 31 31 33 33 31 27 26 24 22 20
20 21 22 23 23 22 23 24 27 29 31 33 34 34 34 34 34 34 35 37 38 39 39 39 40 40 40 41 41 41 40 40 39 39 38 37 36 36 34 33 33 33 34 33 31 30 28 26 24
22 22 23 24 23 23 24 25 27 30 31 31 31 31 31 32 32 33 34 35 36 37 38 38 39 39 39 40 40 40 40 40 40 40 40 40 40 39 38 36 35 34 33 33 33 31 31 30 28
23 24 24 25 25 25 25 26 26 28 28 29 29 29 30 30 30 31 31 32 33 34 35 36 37 38 38 39 39 40 40 40 39 39 39 40 41 41 40 38 37 35 33 32 32 31 32 31 31
22 24 25 26 26 26 26 26 26 26 26 27 27 28 28 28 29 29 29 30 30 31 32 33 34 35 36 38 38 39 39 40 39 39 39 40 41 41 41 39 39 37 34 33 32 32 33 32 32
21 22 24 24 25 25 25 25 24 23 23 24 25 25 26 27 28 28 27 27 27 27 28 29 30 31 32 34 35 36 38 39 39 40 39 39 40 41 41 41 40 37 36 34 34 33 33 32 32
20 21 22 23 23 24 23 21 19 19 20 21 22 22 23 24 24 25 24 24 24 24 24 25 25 26 28 29 31 32 34 36 37 37 38 38 40 40 41 41 40 38 37 36 35 34 33 33 32
18 20 21 22 22 21 19 17 17 16 16 18 19 20 21 21 21 22 22 21 21 21 22 22 22 23 24 26 27 28 30 31 33 35 36 37 39 39 40 39 40 39 38 37 36 36 36 34 33
16 18 19 19 18 17 17 15 14 15 16 17 18 19 20 20 20 20 20 19 19 19 18 19 19 20 21 22 22 23 24 26 29 31 32 34 35 37 38 38 39 38 38 37 36 36 36 35 35
14 15 16 16 15 14 13 13 14 16 17 18 19 19 19 19 19 19 19 18 18 17 17 17 17 18 18 18 18 19 21 23 24 26 28 30 32 34 35 37 38 37 38 38 38 36 36 35 35
12 13 13 13 13 11 11 12 15 17 18 19 19 19 19 19 20 20 20 19 18 18 18 18 18 17 16 16 16 17 18 19 20 21 23 25 27 29 32 34 36 37 37 37 38 38 36 36 35
11 12 12 11 10 9 10 12 15 16 17 18 19 19 19 19 20 20 20 20 20 19 19 19 18 18 16 15 14 14 14 15 16 17 18 20 23 26 29 31 33 35 36 36 37 38 37 37 36
10 11 11 11 11 11 11 12 14 15 16 17 18 18 19 19 20 20 20 21 21 21 20 19 19 18 16 15 14 13 13 12 11 12 13 15 17 20 23 27 30 32 34 35 36 37 37 37 37
10 11 11 12 12 12 12 12 13 15 15 16 17 18 19 19 20 21 21 21 21 22 21 21 20 19 18 16 15 14 13 12 10 9 9 11 12 14 17 21 25 29 32 33 35 36 36 37 37
11 11 12 13 13 13 12 13 14 15 15 16 17 18 18 19 21 21 21 21 21 22 22 22 22 21 20 19 17 16 15 13 11 8 7 8 9 10 13 16 21 24 27 31 34 35 36 36 37
11 12 13 13 14 13 13 14 15 15 16 16 17 18 19 19 20 21 21 21 22 22 22 23 22 22 21 21 19 18 16 15 14 11 9 7 6 8 9 12 16 20 22 26 30 33 34 36 37
11 12 12 13 13 13 13 14 15 16 16 17 18 19 19 20 20 20 21 22 23 23 23 23 23 22 22 21 21 20 19 17 15 13 11 10 8 7 7 7 11 14 17 21 25 27 30 32 35
Wind_Direction
58 51 43 33 23 24 27 39 45 50 50 45 29 13 15 14 346 319 318 241 251 231 203 182 162 133 109 97 87 81 73 63 53 47 39 35 26 7 318 279 261 251 246 242 239 238 236 234 234
55 41 31 15 10 19 29 40 38 33 33 38 25 9 6 360 329 308 293 264 270 274 264 253 243 235 232 225 203 175 147 82 36 21 12 14 14 8 351 316 283 268 261 255 250 246 241 237 236
53 30 12 354 0 19 29 35 34 26 20 20 14 10 5 355 328 302 283 274 278 280 278 273 266 256 252 251 249 246 245 248 257 269 284 303 323 337 340 326 303 285 275 267 259 253 247 241 238
31 3 344 350 6 13 24 23 23 20 12 2 2 4 355 348 327 304 291 284 281 278 277 277 274 267 262 258 256 256 253 250 252 258 265 271 279 291 307 315 306 291 281 274 265 259 252 245 240
359 332 327 338 359 1 4 8 18 6 354 347 346 343 341 339 325 308 298 292 285 278 274 272 272 271 267 264 260 257 255 252 252 255 259 263 266 271 282 293 296 293 289 281 272 264 256 249 241
318 309 316 330 339 340 340 337 342 335 328 324 322 321 318 319 312 305 299 295 288 278 271 269 266 265 266 265 261 259 256 253 252 253 256 259 262 263 266 272 278 281 284 280 269 264 259 255 244
296 298 305 315 323 322 318 321 323 319 318 316 314 310 306 305 302 292 289 290 286 282 275 270 265 260 258 259 259 258 257 255 253 253 254 257 259 260 259 260 262 263 264 265 259 254 255 256 240
292 294 296 300 305 306 305 311 310 310 308 306 305 302 299 300 295 288 283 281 281 279 277 274 269 262 257 257 256 255 254 253 252 252 253 255 257 258 257 256 255 254 253 251 250 248 247 245 230
292 295 294 296 300 297 300 303 303 304 303 302 300 295 294 291 289 285 280 276 274 272 271 271 271 270 265 260 259 257 256 253 251 251 250 251 253 255 255 254 253 251 249 246 245 245 242 235 226
289 291 290 290 291 292 297 297 298 299 298 297 295 292 289 287 284 280 278 276 273 270 267 266 265 267 267 266 263 262 259 254 252 252 250 250 251 252 254 253 251 249 248 244 242 242 240 235 228
285 286 286 286 288 292 296 297 297 296 294 293 291 290 287 284 281 279 277 275 273 271 268 266 264 263 264 264 264 264 262 259 255 254 251 250 250 250 251 251 250 249 247 242 239 239 238 235 230
284 286 287 289 292 296 298 298 297 295 293 292 291 290 288 285 282 279 277 274 272 271 270 267 265 262 261 261 260 261 262 261 260 257 256 253 252 251 251 250 248 247 245 242 239 237 236 234 230
286 290 292 294 297 299 300 299 297 295 294 293 293 291 288 286 283 281 278 275 273 271 269 268 266 264 262 260 259 258 259 261 261 258 258 257 255 256 254 252 249 246 243 240 238 238 236 234 230
291 294 298 300 300 301 301 299 297 297 297 296 295 293 291 288 285 283 280 277 274 272 270 268 267 266 264 262 260 258 257 257 258 259 258 257 257 257 257 256 255 249 243 238 235 235 235 235 233
294 298 301 300 299 301 300 298 298 299 299 298 297 296 293 290 288 285 282 279 277 275 273 271 269 268 267 266 264 263 261 259 258 257 257 258 257 257 256 257 256 253 246 243 240 237 235 234 233
298 300 300 301 302 305 305 304 303 302 302 302 301 300 297 294 291 288 285 282 280 279 276 274 272 270 269 267 267 266 265 263 261 259 258 257 258 258 258 258 257 257 251 246 244 238 234 234 234
299 301 304 306 310 312 312 311 309 310 310 309 306 304 301 298 295 293 289 285 283 282 279 276 273 271 269 268 267 266 266 264 263 261 259 257 256 257 258 259 258 257 256 253 248 243 237 235 235
303 307 311 314 316 317 316 315 316 316 314 312 310 309 307 305 302 299 294 290 287 285 283 280 276 273 271 269 268 266 265 264 264 262 259 257 255 254 255 256 257 257 256 253 251 250 244 239 236
306 310 312 314 315 315 315 315 317 318 316 315 315 314 312 310 308 306 302 297 293 290 288 284 280 276 273 271 269 267 266 265 264 262 259 257 255 254 253 253 253 254 254 252 251 250 248 242 237
308 309 310 310 311 313 315 317 321 321 319 320 320 319 318 317 316 315 312 307 302 298 295 292 287 283 278 274 271 269 267 266 264 261 258 256 255 253 252 250 250 251 251 251 249 247 247 245 242
308 309 311 313 315 318 321 324 329 329 327 330 330 330 331 331 328 326 323 318 313 309 305 301 296 291 285 279 275 272 269 266 264 262 260 257 254 252 250 248 247 247 248 247 246 246 244 243 243
312 314 316 319 320 323 327 334 343 345 346 347 345 343 343 342 341 339 336 332 328 324 319 313 308 302 294 287 281 277 273 269 266 263 261 257 254 251 248 246 244 244 244 243 243 242 241 241 240
321 323 326 327 328 329 336 345 356 359 359 358 356 355 354 353 352 351 350 348 345 342 337 331 325 318 309 298 291 285 281 276 270 266 262 258 254 251 247 243 241 240 240 239 239 238 237 238 238
337 339 339 339 340 339 350 359 9 11 9 7 6 4 3 1 1 360 359 359 356 352 347 342 337 333 326 317 307 299 292 284 276 269 263 259 255 251 247 242 238 237 236 236 236 236 236 235 236
351 351 352 352 353 3 9 15 17 14 13 11 10 10 10 10 9 8 6 5 3 0 358 355 351 346 341 334 326 316 308 298 284 272 265 261 256 252 247 242 237 234 233 232 232 233 234 233 233
6 8 11 13 18 23 23 23 21 19 15 13 14 17 16 15 13 12 12 10 9 8 6 3 0 359 356 351 345 340 331 319 300 282 271 264 259 253 246 240 235 230 228 228 229 229 230 230 230
22 26 29 31 33 35 33 33 30 23 19 19 20 20 19 17 15 14 14 14 14 14 14 11 10 9 8 6 2 359 353 345 325 307 292 275 265 256 247 238 232 229 228 227 228 227 228 228 228
37 38 39 40 38 39 40 37 32 26 25 24 23 21 18 16 15 14 15 15 16 17 18 18 18 18 17 15 13 9 7 5 356 339 319 296 276 261 250 239 230 228 228 227 227 226 226 226 227
51 50 51 51 48 45 42 39 35 32 30 28 25 21 19 18 18 18 19 19 19 19 19 19 20 21 22 21 19 17 15 13 13 9 356 337 306 284 267 247 238 233 231 230 229 228 229 228 227
62 59 56 53 50 47 42 40 35 33 31 29 26 24 22 21 20 20 21 21 21 21 22 22 22 24 25 24 24 22 21 19 17 14 8 1 349 321 296 264 246 240 236 233 233 232 232 229 228
Height
5932 5931 5931 5932 5931 5930 5929 5929 5928 5927 5927 5926 5925 5924 5924 5924 5924 5925 5922 5920 5920 5920 5919 5919 5918 5918 5917 5917 5917 5916 5916 5916 5915 5915 5915 5914 5914 5913 5912 5912 5912 5911 5911 5911 5910 5910 5909 5909 5910
5933 5933 5933 5933 5932 5931 5931 5929 5928 5928 5927 5926 5925 5925 5925 5924 5922 5921 5920 5920 5919 5919 5919 5919 5919 5918 5918 5918 5917 5917 5917 5916 5916 5915 5915 5915 5914 5913 5913 5912 5911 5911 5910 5910 5909 5909 5908 5908 5908
5935 5934 5934 5934 5933 5932 5931 5929 5928 5928 5927 5926 5926 5926 5925 5924 5922 5921 5920 5920 5919 5919 5919 5919 5918 5918 5918 5918 5917 5917 5917 5916 5916 5916 5915 5915 5914 5913 5913 5912 5911 5911 5910 5909 5909 5908 5907 5907 5907
5936 5936 5936 5935 5933 5932 5931 5930 5929 5928 5927 5926 5926 5925 5925 5924 5922 5921 5919 5919 5919 5918 5918 5918 5918 5917 5917 5917 5917 5917 5916 5916 5916 5915 5915 5914 5914 5913 5913 5912 5911 5910 5910 5909 5908 5908 5907 5906 5906
5937 5937 5936 5934 5933 5932 5930 5930 5929 5928 5926 5926 5925 5925 5924 5923 5921 5920 5918 5918 5917 5917 5916 5916 5916 5916 5916 5916 5916 5916 5915 5915 5915 5914 5914 5913 5913 5913 5912 5912 5911 5910 5910 5909 5908 5907 5907 5906 5906
5937 5936 5935 5934 5933 5932 5930 5929 5928 5928 5927 5925 5925 5924 5923 5922 5920 5919 5917 5916 5915 5915 5914 5914 5914 5913 5913 5913 5913 5913 5913 5913 5913 5913 5912 5912 5912 5912 5911 5911 5911 5910 5909 5909 5908 5907 5907 5906 5906
5937 5936 5934 5933 5932 5931 5929 5928 5926 5926 5925 5924 5923 5922 5920 5919 5919 5918 5916 5914 5913 5912 5911 5911 5910 5910 5910 5910 5910 5910 5910 5910 5911 5910 5910 5910 5910 5910 5910 5910 5910 5909 5909 5908 5908 5907 5906 5906 5906
5936 5936 5934 5933 5932 5930 5928 5926 5924 5923 5923 5922 5921 5920 5918 5917 5916 5915 5914 5912 5911 5909 5908 5907 5907 5906 5905 5905 5905 5906 5906 5906 5907 5907 5907 5908 5908 5908 5908 5908 5908 5908 5908 5908 5907 5907 5906 5906 5905
5935 5935 5932 5931 5930 5929 5926 5925 5923 5921 5920 5919 5918 5917 5916 5914 5913 5912 5910 5909 5908 5906 5905 5904 5903 5902 5901 5901 5901 5901 5901 5901 5902 5903 5903 5904 5904 5904 5905 5905 5906 5906 5906 5906 5906 5906 5905 5905 5905
5933 5932 5931 5929 5927 5926 5924 5922 5920 5918 5917 5915 5914 5913 5912 5910 5909 5907 5906 5904 5903 5902 5901 5900 5899 5898 5897 5897 5897 5896 5896 5896 5897 5898 5898 5899 5900 5900 5901 5902 5903 5903 5904 5904 5904 5905 5905 5904 5904
5930 5929 5928 5926 5924 5922 5920 5918 5916 5915 5913 5911 5909 5908 5906 5905 5903 5901 5900 5898 5897 5896 5894 5894 5894 5893 5892 5892 5891 5891 5891 5891 5891 5892 5893 5894 5895 5895 5896 5897 5898 5899 5900 5901 5902 5902 5903 5903 5903
5927 5925 5924 5922 5920 5918 5916 5914 5912 5909 5908 5905 5903 5901 5899 5898 5896 5894 5892 5891 5889 5888 5887 5886 5885 5885 5885 5885 5885 5885 5885 5885 5886 5886 5887 5888 5889 5889 5890 5891 5893 5894 5895 5897 5898 5899 5900 5901 5901
5923 5921 5920 5918 5916 5914 5912 5909 5906 5903 5901 5898 5896 5894 5892 5890 5888 5886 5884 5882 5880 5879 5878 5877 5876 5876 5876 5877 5877 5878 5878 5879 5879 5880 5881 5882 5883 5884 5884 5885 5886 5888 5889 5891 5893 5895 5896 5897 5898
5919 5918 5916 5914 5912 5909 5907 5904 5901 5897 5895 5892 5889 5886 5884 5882 5880 5877 5875 5872 5871 5869 5868 5867 5866 5866 5866 5866 5867 5868 5869 5871 5872 5872 5873 5875 5876 5877 5878 5879 5880 5881 5882 5883 5886 5889 5891 5893 5895
5915 5914 5912 5910 5907 5905 5903 5900 5895 5892 5888 5884 5881 5878 5875 5873 5870 5868 5865 5863 5861 5859 5858 5857 5856 5856 5856 5856 5856 5857 5859 5861 5862 5864 5865 5866 5867 5869 5871 5872 5873 5873 5875 5877 5879 5882 5885 5887 5890
5911 5910 5908 5905 5903 5900 5899 5894 5890 5886 5881 5877 5873 5870 5867 5864 5861 5859 5856 5854 5851 5849 5848 5847 5846 5846 5846 5846 5846 5847 5848 5850 5852 5854 5856 5857 5859 5860 5862 5864 5865 5866 5867 5869 5872 5875 5878 5881 5883
5907 5905 5902 5900 5897 5894 5892 5888 5884 5879 5875 5870 5867 5863 5859 5856 5853 5850 5847 5845 5842 5840 5838 5837 5836 5836 5835 5835 5836 5836 5837 5838 5840 5843 5845 5847 5849 5851 5853 5856 5857 5859 5861 5863 5865 5867 5870 5873 5876
5903 5900 5896 5894 5891 5888 5885 5881 5878 5874 5869 5865 5860 5856 5853 5850 5846 5842 5839 5836 5834 5831 5829 5827 5826 5825 5825 5825 5825 5825 5826 5827 5829 5831 5833 5836 5838 5840 5843 5846 5848 5851 5854 5856 5858 5860 5863 5866 5869
5899 5896 5892 5889 5886 5883 5880 5876 5873 5869 5864 5860 5856 5852 5848 5844 5839 5835 5832 5828 5826 5823 5821 5818 5817 5816 5815 5815 5815 5815 5815 5816 5817 5819 5821 5824 5827 5829 5833 5836 5838 5841 5845 5848 5850 5852 5855 5858 5861
5895 5892 5889 5886 5883 5880 5876 5873 5869 5865 5861 5857 5852 5848 5844 5839 5834 5830 5825 5822 5819 5816 5814 5811 5809 5807 5806 5805 5805 5805 5805 5805 5806 5807 5809 5812 5815 5818 5822 5825 5829 5832 5836 5839 5842 5844 5847 5850 5853
5892 5889 5886 5883 5879 5875 5873 5870 5866 5862 5858 5854 5849 5844 5840 5835 5830 5826 5821 5817 5814 5811 5808 5805 5803 5801 5799 5797 5796 5795 5795 5795 5795 5796 5798 5800 5803 5806 5810 5814 5818 5822 5826 5830 5833 5836 5840 5842 5846
5889 5885 5882 5879 5875 5872 5870 5867 5863 5859 5855 5850 5846 5841 5837 5832 5828 5823 5818 5814 5810 5807 5803 5800 5797 5795 5792 5790 5789 5787 5787 5786 5786 5786 5787 5789 5792 5795 5798 5802 5806 5811 5815 5819 5823 5827 5830 5834 5838
5886 5883 5879 5876 5873 5870 5867 5865 5862 5857 5852 5848 5844 5839 5835 5831 5826 5822 5817 5813 5808 5804 5801 5797 5793 5790 5787 5785 5782 5781 5779 5778 5778 5778 5778 5780 5781 5784 5787 5791 5795 5799 5804 5809 5813 5817 5821 5825 5829
5883 5881 5877 5874 5872 5869 5866 5863 5860 5855 5851 5847 5843 5839 5834 5830 5826 5821 5816 5812 5807 5803 5799 5795 5791 5787 5783 5780 5778 5775 5773 5771 5770 5770 5770 5771 5772 5775 5777 5780 5784 5789 5793 5798 5803 5807 5811 5816 5820
5882 5880 5877 5873 5871 5868 5865 5861 5859 5855 5851 5848 5844 5839 5835 5831 5826 5822 5817 5812 5807 5802 5798 5793 5789 5785 5781 5777 5774 5771 5768 5766 5764 5764 5764 5764 5765 5766 5768 5771 5775 5779 5783 5788 5793 5797 5802 5806 5810
5881 5879 5877 5874 5870 5867 5864 5861 5859 5855 5852 5848 5844 5840 5836 5832 5827 5822 5817 5813 5808 5803 5798 5793 5788 5784 5780 5776 5772 5769 5766 5763 5761 5759 5759 5758 5758 5759 5760 5762 5766 5769 5774 5779 5783 5788 5792 5796 5801
5880 5877 5875 5873 5870 5867 5865 5862 5859 5856 5852 5849 5845 5841 5837 5833 5828 5823 5819 5814 5809 5804 5799 5793 5788 5784 5780 5775 5772 5768 5764 5761 5758 5757 5755 5754 5754 5754 5754 5756 5758 5762 5766 5770 5774 5778 5782 5787 5791
5880 5877 5875 5873 5870 5868 5866 5863 5860 5856 5853 5850 5846 5842 5838 5834 5829 5825 5820 5815 5810 5805 5800 5795 5790 5785 5780 5776 5772 5768 5764 5761 5757 5755 5753 5752 5751 5750 5750 5751 5752 5755 5758 5761 5765 5770 5774 5778 5782
5880 5878 5876 5873 5871 5869 5866 5866 5861 5858 5854 5851 5847 5843 5839 5835 5831 5826 5821 5816 5812 5807 5802 5797 5792 5787 5782 5778 5773 5769 5765 5761 5758 5755 5753 5751 5749 5748 5748 5748 5749 5750 5752 5755 5759 5762 5766 5770 5774
5881 5879 5877 5875 5873 5870 5868 5869 5862 5859 5855 5852 5848 5844 5840 5836 5832 5828 5823 5818 5813 5809 5804 5799 5794 5789 5784 5780 5775 5771 5767 5763 5759 5756 5753 5751 5749 5747 5746 5745 5746 5747 5748 5750 5753 5755 5758 5762 5766